,,,PA_Meas_PMT16A,,PR_Meas_QMR101_102,,RH_Meas_QMH101,,SR_Meas_QMS101,,TA_Meas_QMH101,,GenWind,,GenWind,
date,time,status,PA,status,PR,status,RH,status,SR,status,TA,status,DirAvg,status,SpdAvg,
2014-05-24, 00:00:04,VALID,1009.79,VALID,0,VALID,104,VALID,0.112112,VALID,23.4212,VALID,291,VALID,0,
2014-05-24, 00:01:04,VALID,1009.71,VALID,0,VALID,104,VALID,0.112112,VALID,23.4,VALID,291,VALID,0,
2014-05-24, 00:02:04,VALID,1009.72,VALID,0,VALID,104,VALID,0.112112,VALID,23.4,VALID,291,VALID,0,
2014-05-24, 00:03:04,VALID,1009.7,VALID,0,VALID,104,VALID,0,VALID,23.4212,VALID,291,VALID,0,
2014-05-24, 00:04:04,VALID,1009.67,VALID,0,VALID,104,VALID,0.112112,VALID,23.3805,VALID,291,VALID,0,
2014-05-24, 00:05:04,VALID,1009.7,VALID,0,VALID,104,VALID,0.112112,VALID,23.4017,VALID,291,VALID,0,
2014-05-24, 00:06:04,VALID,1009.63,VALID,0,VALID,104,VALID,0,VALID,23.3823,VALID,291,VALID,0,
2014-05-24, 00:07:04,VALID,1009.63,VALID,0,VALID,104,VALID,0,VALID,23.4017,VALID,291,VALID,0,
2014-05-24, 00:08:04,VALID,1009.61,VALID,0,VALID,104,VALID,0.112112,VALID,23.3823,VALID,291,VALID,0,
2014-05-24, 00:09:04,VALID,1009.59,VALID,0,VALID,104,VALID,0.112112,VALID,23.3628,VALID,291,VALID,0,
2014-05-24, 00:10:04,VALID,1009.57,VALID,0,VALID,104,VALID,0,VALID,23.3415,VALID,291,VALID,0,
2014-05-24, 00:11:04,VALID,1009.59,VALID,0,VALID,104,VALID,0,VALID,23.3433,VALID,291,VALID,0,
2014-05-24, 00:12:04,VALID,1009.62,VALID,0,VALID,104,VALID,0,VALID,23.3628,VALID,291,VALID,0,
2014-05-24, 00:13:04,VALID,1009.64,VALID,0,VALID,104,VALID,0,VALID,23.3628,VALID,291,VALID,0,
2014-05-24, 00:14:04,VALID,1009.64,VALID,0,VALID,104,VALID,0.112112,VALID,23.3823,VALID,291,VALID,0,
2014-05-24, 00:15:04,VALID,1009.68,VALID,0,VALID,104,VALID,0,VALID,23.361,VALID,291,VALID,0,
2014-05-24, 00:16:04,VALID,1009.67,VALID,0,VALID,104,VALID,0.112112,VALID,23.3628,VALID,291,VALID,0,
2014-05-24, 00:17:04,VALID,1009.66,VALID,0,VALID,104,VALID,0,VALID,23.3823,VALID,291,VALID,0,
2014-05-24, 00:18:04,VALID,1009.64,VALID,0,VALID,104,VALID,0.112112,VALID,23.3628,VALID,291,VALID,0,
2014-05-24, 00:19:04,VALID,1009.64,VALID,0,VALID,104,VALID,0,VALID,23.3628,VALID,291,VALID,0,
2014-05-24, 00:20:04,VALID,1009.6,VALID,0,VALID,104,VALID,0.112112,VALID,23.3415,VALID,291,VALID,0,
2014-05-24, 00:21:04,VALID,1009.58,VALID,0,VALID,104,VALID,0,VALID,23.3415,VALID,291,VALID,0,
2014-05-24, 00:22:04,VALID,1009.57,VALID,0,VALID,104,VALID,0,VALID,23.3823,VALID,287,VALID,0,
2014-05-24, 00:23:04,VALID,1009.57,VALID,0,VALID,104,VALID,0.112112,VALID,23.3823,VALID,287,VALID,0,
2014-05-24, 00:24:04,VALID,1009.54,VALID,0,VALID,104,VALID,0.112112,VALID,23.3823,VALID,287,VALID,0,
2014-05-24, 00:25:04,VALID,1009.55,VALID,0,VALID,104,VALID,0.112112,VALID,23.3805,VALID,287,VALID,0,
2014-05-24, 00:26:04,VALID,1009.53,VALID,0,VALID,104,VALID,0,VALID,23.3823,VALID,211,VALID,0,
2014-05-24, 00:27:04,VALID,1009.52,VALID,0,VALID,104,VALID,0,VALID,23.4017,VALID,211,VALID,0,
2014-05-24, 00:28:04,VALID,1009.53,VALID,0,VALID,104,VALID,0.112112,VALID,23.4017,VALID,211,VALID,0,
2014-05-24, 00:29:04,VALID,1009.52,VALID,0,VALID,104,VALID,0,VALID,23.3805,VALID,211,VALID,0,
2014-05-24, 00:30:04,VALID,1009.53,VALID,0,VALID,104,VALID,0,VALID,23.3628,VALID,211,VALID,0,
2014-05-24, 00:31:04,VALID,1009.53,VALID,0,VALID,104,VALID,0,VALID,23.3628,VALID,211,VALID,0,
2014-05-24, 00:32:04,VALID,1009.51,VALID,0,VALID,104,VALID,0,VALID,23.3628,VALID,211,VALID,0,
2014-05-24, 00:33:04,VALID,1009.55,VALID,0,VALID,104,VALID,0,VALID,23.3433,VALID,211,VALID,0,
2014-05-24, 00:34:04,VALID,1009.52,VALID,0,VALID,104,VALID,0,VALID,23.3628,VALID,211,VALID,0,
2014-05-24, 00:35:04,VALID,1009.52,VALID,0,VALID,104,VALID,0.112112,VALID,23.3238,VALID,211,VALID,0,
2014-05-24, 00:36:04,VALID,1009.49,VALID,0,VALID,104,VALID,0.112112,VALID,23.3043,VALID,211,VALID,0,
2014-05-24, 00:37:04,VALID,1009.5,VALID,0,VALID,104,VALID,0,VALID,23.3043,VALID,211,VALID,0,
2014-05-24, 00:38:04,VALID,1009.48,VALID,0,VALID,104,VALID,0.112112,VALID,23.2848,VALID,169,VALID,0,
2014-05-24, 00:39:04,VALID,1009.46,VALID,0,VALID,104,VALID,0,VALID,23.3043,VALID,169,VALID,0,
2014-05-24, 00:40:04,VALID,1009.5,VALID,0,VALID,104,VALID,0,VALID,23.3043,VALID,169,VALID,0,
2014-05-24, 00:41:04,VALID,1009.44,VALID,0,VALID,104,VALID,0,VALID,23.2636,VALID,84,VALID,0,
2014-05-24, 00:42:04,VALID,1009.46,VALID,0,VALID,104,VALID,0,VALID,23.2848,VALID,84,VALID,0,
2014-05-24, 00:43:04,VALID,1009.5,VALID,0,VALID,104,VALID,0,VALID,23.2848,VALID,84,VALID,0,
2014-05-24, 00:44:04,VALID,1009.48,VALID,0,VALID,104,VALID,0,VALID,23.2848,VALID,84,VALID,0,
2014-05-24, 00:45:04,VALID,1009.48,VALID,0,VALID,104,VALID,0,VALID,23.2848,VALID,84,VALID,0,
2014-05-24, 00:46:04,VALID,1009.46,VALID,0,VALID,104,VALID,0,VALID,23.2459,VALID,84,VALID,0,
2014-05-24, 00:47:04,VALID,1009.43,VALID,0,VALID,104,VALID,0,VALID,23.2459,VALID,83,VALID,0,
2014-05-24, 00:48:04,VALID,1009.43,VALID,0,VALID,104,VALID,0.112112,VALID,23.2264,VALID,69,VALID,0,
2014-05-24, 00:49:04,VALID,1009.44,VALID,0,VALID,104,VALID,0,VALID,23.1857,VALID,69,VALID,0,
2014-05-24, 00:50:04,VALID,1009.41,VALID,0,VALID,104,VALID,0.112112,VALID,23.2069,VALID,69,VALID,0,
2014-05-24, 00:51:04,VALID,1009.42,VALID,0,VALID,104,VALID,0,VALID,23.2069,VALID,69,VALID,0,
2014-05-24, 00:52:04,VALID,1009.39,VALID,0,VALID,104,VALID,0,VALID,23.1857,VALID,69,VALID,0,
2014-05-24, 00:53:04,VALID,1009.41,VALID,0,VALID,104,VALID,0.112112,VALID,23.2069,VALID,69,VALID,0,
2014-05-24, 00:54:04,VALID,1009.39,VALID,0,VALID,104,VALID,0,VALID,23.1874,VALID,69,VALID,0,
2014-05-24, 00:55:04,VALID,1009.4,VALID,0,VALID,104,VALID,0,VALID,23.1874,VALID,69,VALID,0,
2014-05-24, 00:56:04,VALID,1009.39,VALID,0,VALID,104,VALID,0,VALID,23.1679,VALID,69,VALID,0,
2014-05-24, 00:57:04,VALID,1009.41,VALID,0,VALID,104,VALID,0,VALID,23.1679,VALID,69,VALID,0,
2014-05-24, 00:58:04,VALID,1009.41,VALID,0,VALID,104,VALID,0,VALID,23.1485,VALID,69,VALID,0,
2014-05-24, 00:59:04,VALID,1009.42,VALID,0,VALID,104,VALID,0,VALID,23.1485,VALID,69,VALID,0,
2014-05-24, 01:00:04,VALID,1009.4,VALID,0,VALID,104,VALID,0,VALID,23.1485,VALID,69,VALID,0,
2014-05-24, 01:01:04,VALID,1009.4,VALID,0,VALID,104,VALID,0,VALID,23.129,VALID,69,VALID,0,
2014-05-24, 01:02:04,VALID,1009.41,VALID,0,VALID,104,VALID,0,VALID,23.1485,VALID,69,VALID,0,
2014-05-24, 01:03:04,VALID,1009.43,VALID,0,VALID,104,VALID,0,VALID,23.129,VALID,69,VALID,0,
2014-05-24, 01:04:04,VALID,1009.43,VALID,0,VALID,104,VALID,0,VALID,23.129,VALID,69,VALID,0,
2014-05-24, 01:05:04,VALID,1009.38,VALID,0,VALID,104,VALID,0,VALID,23.1095,VALID,69,VALID,0,
2014-05-24, 01:06:04,VALID,1009.43,VALID,0,VALID,104,VALID,0,VALID,23.09,VALID,72,VALID,0,
2014-05-24, 01:07:04,VALID,1009.43,VALID,0,VALID,104,VALID,0,VALID,23.1095,VALID,84,VALID,0,
2014-05-24, 01:08:04,VALID,1009.43,VALID,0,VALID,104,VALID,0,VALID,23.09,VALID,84,VALID,0,
2014-05-24, 01:09:04,VALID,1009.46,VALID,0,VALID,104,VALID,0,VALID,23.0688,VALID,84,VALID,0,
2014-05-24, 01:10:04,VALID,1009.44,VALID,0,VALID,104,VALID,0,VALID,23.0705,VALID,84,VALID,0,
2014-05-24, 01:11:04,VALID,1009.42,VALID,0,VALID,104,VALID,0,VALID,23.09,VALID,84,VALID,0,
2014-05-24, 01:12:04,VALID,1009.39,VALID,0,VALID,104,VALID,0,VALID,23.09,VALID,84,VALID,0,
2014-05-24, 01:13:04,VALID,1009.37,VALID,0,VALID,104,VALID,0,VALID,23.0705,VALID,84,VALID,0,
2014-05-24, 01:14:04,VALID,1009.31,VALID,0,VALID,104,VALID,0,VALID,23.0705,VALID,84,VALID,0,
2014-05-24, 01:15:04,VALID,1009.3,VALID,0,VALID,104,VALID,0,VALID,23.0511,VALID,84,VALID,0,
2014-05-24, 01:16:04,VALID,1009.25,VALID,0,VALID,104,VALID,0,VALID,23.0316,VALID,84,VALID,0,
2014-05-24, 01:17:04,VALID,1009.23,VALID,0,VALID,104,VALID,0,VALID,23.0121,VALID,84,VALID,0,
2014-05-24, 01:18:04,VALID,1009.21,VALID,0,VALID,104,VALID,0,VALID,22.9926,VALID,84,VALID,0,
2014-05-24, 01:19:04,VALID,1009.2,VALID,0,VALID,104,VALID,0,VALID,23.0121,VALID,84,VALID,0,
2014-05-24, 01:20:04,VALID,1009.21,VALID,0,VALID,104,VALID,0,VALID,22.9926,VALID,84,VALID,0,
2014-05-24, 01:21:04,VALID,1009.21,VALID,0,VALID,104,VALID,0,VALID,22.9714,VALID,84,VALID,0,
2014-05-24, 01:22:04,VALID,1009.21,VALID,0,VALID,104,VALID,0.112112,VALID,22.9926,VALID,84,VALID,0,
2014-05-24, 01:23:04,VALID,1009.16,VALID,0,VALID,104,VALID,0,VALID,22.9926,VALID,83,VALID,0,
2014-05-24, 01:24:04,VALID,1009.2,VALID,0,VALID,104,VALID,0,VALID,22.9749,VALID,67,VALID,0,
2014-05-24, 01:25:04,VALID,1009.18,VALID,0,VALID,104,VALID,0,VALID,22.9749,VALID,67,VALID,0,
2014-05-24, 01:26:04,VALID,1009.22,VALID,0,VALID,104,VALID,0,VALID,22.9749,VALID,67,VALID,0,
2014-05-24, 01:27:04,VALID,1009.21,VALID,0,VALID,104,VALID,0,VALID,22.9943,VALID,67,VALID,0,
2014-05-24, 01:28:04,VALID,1009.22,VALID,0,VALID,104,VALID,0,VALID,22.9749,VALID,67,VALID,0,
2014-05-24, 01:29:04,VALID,1009.19,VALID,0,VALID,104,VALID,0,VALID,22.9749,VALID,67,VALID,0,
2014-05-24, 01:30:04,VALID,1009.14,VALID,0,VALID,104,VALID,0,VALID,22.9749,VALID,67,VALID,0,
2014-05-24, 01:31:04,VALID,1009.14,VALID,0,VALID,104,VALID,0,VALID,22.9749,VALID,67,VALID,0,
2014-05-24, 01:32:04,VALID,1009.13,VALID,0,VALID,104,VALID,0,VALID,22.9749,VALID,67,VALID,0,
2014-05-24, 01:33:04,VALID,1009.09,VALID,0,VALID,104,VALID,0,VALID,22.9749,VALID,67,VALID,0,
2014-05-24, 01:34:04,VALID,1009.08,VALID,0,VALID,104,VALID,0,VALID,22.9749,VALID,67,VALID,0,
2014-05-24, 01:35:04,VALID,1009.09,VALID,0,VALID,104,VALID,0,VALID,22.9749,VALID,67,VALID,0,
2014-05-24, 01:36:04,VALID,1009.11,VALID,0,VALID,104,VALID,0,VALID,22.9749,VALID,67,VALID,0,
2014-05-24, 01:37:04,VALID,1009.1,VALID,0,VALID,104,VALID,0,VALID,22.9554,VALID,67,VALID,0,
2014-05-24, 01:38:04,VALID,1009.13,VALID,0,VALID,104,VALID,0,VALID,22.9554,VALID,67,VALID,0,
2014-05-24, 01:39:04,VALID,1009.16,VALID,0,VALID,104,VALID,0,VALID,22.9536,VALID,67,VALID,0,
2014-05-24, 01:40:04,VALID,1009.18,VALID,0,VALID,104,VALID,0.112112,VALID,22.9536,VALID,67,VALID,0,
2014-05-24, 01:41:04,VALID,1009.21,VALID,0,VALID,104,VALID,0,VALID,22.9536,VALID,67,VALID,0,
2014-05-24, 01:42:04,VALID,1009.23,VALID,0,VALID,104,VALID,0.112112,VALID,22.9324,VALID,67,VALID,0,
2014-05-24, 01:43:04,VALID,1009.22,VALID,0,VALID,104,VALID,0.112112,VALID,22.9342,VALID,67,VALID,0,
2014-05-24, 01:44:04,VALID,1009.24,VALID,0,VALID,104,VALID,0,VALID,22.9342,VALID,67,VALID,0,
2014-05-24, 01:45:04,VALID,1009.23,VALID,0,VALID,104,VALID,0,VALID,22.9536,VALID,67,VALID,0,
2014-05-24, 01:46:04,VALID,1009.22,VALID,0,VALID,104,VALID,0.112112,VALID,22.9342,VALID,67,VALID,0,
2014-05-24, 01:47:04,VALID,1009.2,VALID,0,VALID,104,VALID,0.112112,VALID,22.9342,VALID,45,VALID,0,
2014-05-24, 01:48:04,VALID,1009.2,VALID,0,VALID,104,VALID,0.112112,VALID,22.8935,VALID,45,VALID,0,
2014-05-24, 01:49:04,VALID,1009.18,VALID,0,VALID,104,VALID,0.112112,VALID,22.9147,VALID,46,VALID,0,
2014-05-24, 01:50:04,VALID,1009.21,VALID,0,VALID,104,VALID,0,VALID,22.9342,VALID,46,VALID,0,
2014-05-24, 01:51:04,VALID,1009.21,VALID,0,VALID,104,VALID,0,VALID,22.9147,VALID,46,VALID,0,
2014-05-24, 01:52:04,VALID,1009.21,VALID,0,VALID,104,VALID,0.112112,VALID,22.9147,VALID,46,VALID,0,
2014-05-24, 01:53:04,VALID,1009.24,VALID,0,VALID,104,VALID,0,VALID,22.9147,VALID,46,VALID,0,
2014-05-24, 01:54:04,VALID,1009.26,VALID,0,VALID,104,VALID,0.112112,VALID,22.9147,VALID,46,VALID,0,
2014-05-24, 01:55:04,VALID,1009.23,VALID,0,VALID,104,VALID,0.112112,VALID,22.9147,VALID,46,VALID,0,
2014-05-24, 01:56:04,VALID,1009.26,VALID,0,VALID,104,VALID,0,VALID,22.9147,VALID,46,VALID,0,
2014-05-24, 01:57:04,VALID,1009.25,VALID,0,VALID,104,VALID,0,VALID,22.9147,VALID,46,VALID,0,
2014-05-24, 01:58:04,VALID,1009.24,VALID,0,VALID,104,VALID,0,VALID,22.8935,VALID,46,VALID,0,
2014-05-24, 01:59:04,VALID,1009.23,VALID,0,VALID,104,VALID,0,VALID,22.9147,VALID,46,VALID,0,
2014-05-24, 02:00:04,VALID,1009.22,VALID,0,VALID,104,VALID,0.112112,VALID,22.8935,VALID,46,VALID,0,
2014-05-24, 02:01:04,VALID,1009.23,VALID,0,VALID,104,VALID,0,VALID,22.9147,VALID,46,VALID,0,
2014-05-24, 02:02:04,VALID,1009.22,VALID,0,VALID,104,VALID,0,VALID,22.9147,VALID,46,VALID,0,
2014-05-24, 02:03:04,VALID,1009.25,VALID,0,VALID,104,VALID,0,VALID,22.9147,VALID,46,VALID,0,
2014-05-24, 02:04:04,VALID,1009.24,VALID,0,VALID,104,VALID,0.112112,VALID,22.9147,VALID,46,VALID,0,
2014-05-24, 02:05:04,VALID,1009.23,VALID,0,VALID,104,VALID,0,VALID,22.9147,VALID,46,VALID,0,
2014-05-24, 02:06:04,VALID,1009.24,VALID,0,VALID,104,VALID,0.112112,VALID,22.9147,VALID,46,VALID,0,
2014-05-24, 02:07:04,VALID,1009.24,VALID,0,VALID,104,VALID,0.112112,VALID,22.9147,VALID,46,VALID,0,
2014-05-24, 02:08:04,VALID,1009.26,VALID,0,VALID,104,VALID,0.112112,VALID,22.8935,VALID,46,VALID,0,
2014-05-24, 02:09:04,VALID,1009.29,VALID,0,VALID,104,VALID,0.112112,VALID,22.874,VALID,46,VALID,0,
2014-05-24, 02:10:04,VALID,1009.3,VALID,0,VALID,104,VALID,0,VALID,22.8935,VALID,46,VALID,0,
2014-05-24, 02:11:04,VALID,1009.31,VALID,0,VALID,104,VALID,0,VALID,22.8952,VALID,46,VALID,0,
2014-05-24, 02:12:04,VALID,1009.32,VALID,0,VALID,104,VALID,0.112112,VALID,22.8935,VALID,46,VALID,0,
2014-05-24, 02:13:04,VALID,1009.3,VALID,0,VALID,104,VALID,0.112112,VALID,22.9147,VALID,46,VALID,0,
2014-05-24, 02:14:04,VALID,1009.29,VALID,0,VALID,104,VALID,0.112112,VALID,22.8952,VALID,46,VALID,0,
2014-05-24, 02:15:04,VALID,1009.3,VALID,0,VALID,104,VALID,0,VALID,22.8952,VALID,46,VALID,0,
2014-05-24, 02:16:04,VALID,1009.29,VALID,0,VALID,104,VALID,0,VALID,22.8952,VALID,46,VALID,0,
2014-05-24, 02:17:04,VALID,1009.29,VALID,0,VALID,104,VALID,0.112112,VALID,22.9147,VALID,46,VALID,0,
2014-05-24, 02:18:04,VALID,1009.29,VALID,0,VALID,104,VALID,0,VALID,22.8935,VALID,46,VALID,0,
2014-05-24, 02:19:04,VALID,1009.28,VALID,0,VALID,104,VALID,0.112112,VALID,22.9147,VALID,46,VALID,0,
2014-05-24, 02:20:04,VALID,1009.3,VALID,0,VALID,104,VALID,0,VALID,22.8952,VALID,46,VALID,0,
2014-05-24, 02:21:04,VALID,1009.34,VALID,0,VALID,104,VALID,0,VALID,22.9147,VALID,46,VALID,0,
2014-05-24, 02:22:04,VALID,1009.35,VALID,0,VALID,104,VALID,0.112112,VALID,22.9324,VALID,46,VALID,0,
2014-05-24, 02:23:04,VALID,1009.4,VALID,0,VALID,104,VALID,0,VALID,22.9731,VALID,46,VALID,0,
2014-05-24, 02:24:04,VALID,1009.45,VALID,0,VALID,104,VALID,0.112112,VALID,23.0121,VALID,89,VALID,0,
2014-05-24, 02:25:04,VALID,1009.49,VALID,0,VALID,104,VALID,0,VALID,23.0298,VALID,116,VALID,0,
2014-05-24, 02:26:04,VALID,1009.54,VALID,0,VALID,104,VALID,0,VALID,23.0316,VALID,158,VALID,0,
2014-05-24, 02:27:04,VALID,1009.54,VALID,0,VALID,104,VALID,0.112112,VALID,23.0511,VALID,143,VALID,0,
2014-05-24, 02:28:04,VALID,1009.58,VALID,0,VALID,104,VALID,0,VALID,23.0511,VALID,166,VALID,0,
2014-05-24, 02:29:04,VALID,1009.59,VALID,0,VALID,104,VALID,0,VALID,23.0298,VALID,151,VALID,0,
2014-05-24, 02:30:04,VALID,1009.62,VALID,0,VALID,104,VALID,0,VALID,23.0511,VALID,166,VALID,0,
2014-05-24, 02:31:04,VALID,1009.63,VALID,0,VALID,104,VALID,0.112112,VALID,23.0705,VALID,182,VALID,0,
2014-05-24, 02:32:04,VALID,1009.64,VALID,0,VALID,104,VALID,0,VALID,23.0511,VALID,171,VALID,0,
2014-05-24, 02:33:04,VALID,1009.66,VALID,0,VALID,104,VALID,0,VALID,23.0705,VALID,155,VALID,0,
2014-05-24, 02:34:04,VALID,1009.65,VALID,0,VALID,104,VALID,0.112112,VALID,23.0688,VALID,166,VALID,0,
2014-05-24, 02:35:04,VALID,1009.63,VALID,0,VALID,104,VALID,0.112112,VALID,23.0705,VALID,166,VALID,0,
2014-05-24, 02:36:04,VALID,1009.63,VALID,0,VALID,104,VALID,0,VALID,23.0705,VALID,142,VALID,0,
2014-05-24, 02:37:04,VALID,1009.65,VALID,0,VALID,104,VALID,0,VALID,23.09,VALID,142,VALID,0,
2014-05-24, 02:38:04,VALID,1009.67,VALID,0,VALID,104,VALID,0,VALID,23.09,VALID,130,VALID,0,
2014-05-24, 02:39:04,VALID,1009.65,VALID,0,VALID,104,VALID,0,VALID,23.1095,VALID,135,VALID,0,
2014-05-24, 02:40:04,VALID,1009.6,VALID,0,VALID,104,VALID,0,VALID,23.129,VALID,135,VALID,0,
2014-05-24, 02:41:04,VALID,1009.62,VALID,0,VALID,104,VALID,0,VALID,23.1485,VALID,135,VALID,0,
2014-05-24, 02:42:04,VALID,1009.65,VALID,0,VALID,104,VALID,0,VALID,23.129,VALID,160,VALID,0,
2014-05-24, 02:43:04,VALID,1009.64,VALID,0,VALID,104,VALID,0,VALID,23.1485,VALID,151,VALID,0,
2014-05-24, 02:44:04,VALID,1009.65,VALID,0,VALID,104,VALID,0.112112,VALID,23.1485,VALID,159,VALID,0,
2014-05-24, 02:45:04,VALID,1009.65,VALID,0,VALID,104,VALID,0,VALID,23.1679,VALID,159,VALID,0,
2014-05-24, 02:46:04,VALID,1009.66,VALID,0,VALID,104,VALID,0,VALID,23.1679,VALID,149,VALID,0,
2014-05-24, 02:47:04,VALID,1009.66,VALID,0,VALID,104,VALID,0,VALID,23.1874,VALID,147,VALID,0,
2014-05-24, 02:48:04,VALID,1009.63,VALID,0,VALID,104,VALID,0,VALID,23.1874,VALID,129,VALID,0,
2014-05-24, 02:49:04,VALID,1009.64,VALID,0,VALID,104,VALID,0,VALID,23.1874,VALID,134,VALID,0,
2014-05-24, 02:50:04,VALID,1009.67,VALID,0,VALID,104,VALID,0.112112,VALID,23.1679,VALID,136,VALID,0,
2014-05-24, 02:51:04,VALID,1009.67,VALID,0,VALID,104,VALID,0,VALID,23.1679,VALID,155,VALID,0,
2014-05-24, 02:52:04,VALID,1009.67,VALID,0,VALID,104,VALID,0,VALID,23.1485,VALID,162,VALID,0,
2014-05-24, 02:53:04,VALID,1009.69,VALID,0,VALID,104,VALID,0,VALID,23.1485,VALID,142,VALID,0,
2014-05-24, 02:54:04,VALID,1009.66,VALID,0,VALID,104,VALID,0,VALID,23.1485,VALID,135,VALID,0,
2014-05-24, 02:55:04,VALID,1009.67,VALID,0,VALID,104,VALID,0,VALID,23.1077,VALID,143,VALID,0,
2014-05-24, 02:56:04,VALID,1009.66,VALID,0,VALID,104,VALID,0.112112,VALID,23.0688,VALID,150,VALID,0,
2014-05-24, 02:57:04,VALID,1009.67,VALID,0,VALID,104,VALID,0,VALID,23.0705,VALID,156,VALID,0,
2014-05-24, 02:58:04,VALID,1009.65,VALID,0,VALID,104,VALID,0,VALID,23.0316,VALID,161,VALID,0,
2014-05-24, 02:59:04,VALID,1009.67,VALID,0,VALID,104,VALID,0,VALID,23.0316,VALID,161,VALID,0,
2014-05-24, 03:00:04,VALID,1009.66,VALID,0,VALID,104,VALID,0,VALID,23.0316,VALID,161,VALID,0,
2014-05-24, 03:01:04,VALID,1009.63,VALID,0,VALID,104,VALID,0,VALID,22.9536,VALID,136,VALID,0,
2014-05-24, 03:02:04,VALID,1009.62,VALID,0,VALID,104,VALID,0.112112,VALID,22.9536,VALID,134,VALID,0,
2014-05-24, 03:03:04,VALID,1009.66,VALID,0,VALID,104,VALID,0.112112,VALID,22.9536,VALID,145,VALID,0,
2014-05-24, 03:04:04,VALID,1009.69,VALID,0,VALID,104,VALID,0.112112,VALID,22.9342,VALID,155,VALID,0,
2014-05-24, 03:05:04,VALID,1009.7,VALID,0,VALID,104,VALID,0,VALID,22.9731,VALID,146,VALID,0,
2014-05-24, 03:06:04,VALID,1009.74,VALID,0,VALID,104,VALID,0,VALID,22.9731,VALID,134,VALID,0,
2014-05-24, 03:07:04,VALID,1009.76,VALID,0,VALID,104,VALID,0,VALID,22.9731,VALID,134,VALID,0,
2014-05-24, 03:08:04,VALID,1009.73,VALID,0,VALID,104,VALID,0,VALID,22.9731,VALID,134,VALID,0,
2014-05-24, 03:09:04,VALID,1009.72,VALID,0,VALID,104,VALID,0.112112,VALID,22.9342,VALID,134,VALID,0,
2014-05-24, 03:10:04,VALID,1009.74,VALID,0,VALID,104,VALID,0,VALID,22.9147,VALID,97,VALID,0,
2014-05-24, 03:11:04,VALID,1009.76,VALID,0,VALID,104,VALID,0,VALID,22.8952,VALID,127,VALID,0,
2014-05-24, 03:12:04,VALID,1009.72,VALID,0,VALID,104,VALID,0,VALID,22.8173,VALID,114,VALID,0,
2014-05-24, 03:13:04,VALID,1009.74,VALID,0,VALID,104,VALID,0.112112,VALID,22.8368,VALID,114,VALID,0,
2014-05-24, 03:14:04,VALID,1009.76,VALID,0,VALID,104,VALID,0,VALID,22.7783,VALID,120,VALID,0,
2014-05-24, 03:15:04,VALID,1009.74,VALID,0,VALID,104,VALID,0.112112,VALID,22.7394,VALID,137,VALID,0,
2014-05-24, 03:16:04,VALID,1009.74,VALID,0,VALID,104,VALID,0.112112,VALID,22.7199,VALID,152,VALID,0,
2014-05-24, 03:17:04,VALID,1009.75,VALID,0,VALID,104,VALID,0.112112,VALID,22.6987,VALID,130,VALID,0,
2014-05-24, 03:18:04,VALID,1009.79,VALID,0,VALID,104,VALID,0,VALID,22.6987,VALID,141,VALID,0,
2014-05-24, 03:19:04,VALID,1009.78,VALID,0,VALID,104,VALID,0,VALID,22.6809,VALID,138,VALID,0,
2014-05-24, 03:20:04,VALID,1009.77,VALID,0,VALID,104,VALID,0,VALID,22.7199,VALID,133,VALID,0,
2014-05-24, 03:21:04,VALID,1009.77,VALID,0,VALID,104,VALID,0.112112,VALID,22.7199,VALID,130,VALID,0,
2014-05-24, 03:22:04,VALID,1009.77,VALID,0,VALID,104,VALID,0,VALID,22.6809,VALID,107,VALID,0,
2014-05-24, 03:23:04,VALID,1009.79,VALID,0,VALID,104,VALID,0.112112,VALID,22.6614,VALID,122,VALID,0,
2014-05-24, 03:24:04,VALID,1009.78,VALID,0,VALID,104,VALID,0.112112,VALID,22.6614,VALID,102,VALID,0,
2014-05-24, 03:25:04,VALID,1009.78,VALID,0,VALID,104,VALID,0,VALID,22.642,VALID,110,VALID,0,
2014-05-24, 03:26:04,VALID,1009.77,VALID,0,VALID,104,VALID,0,VALID,22.642,VALID,109,VALID,0,
2014-05-24, 03:27:04,VALID,1009.75,VALID,0,VALID,104,VALID,0,VALID,22.6225,VALID,86,VALID,0,
2014-05-24, 03:28:04,VALID,1009.73,VALID,0,VALID,104,VALID,0.112112,VALID,22.603,VALID,84,VALID,0,
2014-05-24, 03:29:04,VALID,1009.73,VALID,0,VALID,104,VALID,0.112112,VALID,22.603,VALID,108,VALID,0,
2014-05-24, 03:30:04,VALID,1009.72,VALID,0,VALID,104,VALID,0.112112,VALID,22.603,VALID,93,VALID,0,
2014-05-24, 03:31:04,VALID,1009.73,VALID,0,VALID,104,VALID,0,VALID,22.5835,VALID,78,VALID,0,
2014-05-24, 03:32:04,VALID,1009.71,VALID,0,VALID,104,VALID,0.112112,VALID,22.5835,VALID,107,VALID,0,
2014-05-24, 03:33:04,VALID,1009.76,VALID,0,VALID,104,VALID,0.112112,VALID,22.5234,VALID,128,VALID,0,
2014-05-24, 03:34:04,VALID,1009.76,VALID,0,VALID,104,VALID,0.112112,VALID,22.5056,VALID,116,VALID,0,
2014-05-24, 03:35:04,VALID,1009.74,VALID,0,VALID,104,VALID,0.112112,VALID,22.5056,VALID,115,VALID,0,
2014-05-24, 03:36:04,VALID,1009.73,VALID,0,VALID,104,VALID,0.112112,VALID,22.4861,VALID,105,VALID,0,
2014-05-24, 03:37:04,VALID,1009.74,VALID,0,VALID,104,VALID,0.112112,VALID,22.4861,VALID,94,VALID,0,
2014-05-24, 03:38:04,VALID,1009.73,VALID,0,VALID,104,VALID,0,VALID,22.4861,VALID,88,VALID,0,
2014-05-24, 03:39:04,VALID,1009.71,VALID,0,VALID,104,VALID,0,VALID,22.4861,VALID,90,VALID,0,
2014-05-24, 03:40:04,VALID,1009.7,VALID,0,VALID,104,VALID,0.112112,VALID,22.465,VALID,92,VALID,0,
2014-05-24, 03:41:04,VALID,1009.7,VALID,0,VALID,104,VALID,0.112112,VALID,22.5251,VALID,90,VALID,0,
2014-05-24, 03:42:04,VALID,1009.66,VALID,0,VALID,104,VALID,0.112112,VALID,22.5251,VALID,92,VALID,0,
2014-05-24, 03:43:04,VALID,1009.67,VALID,0,VALID,104,VALID,0,VALID,22.5056,VALID,88,VALID,0,
2014-05-24, 03:44:04,VALID,1009.64,VALID,0,VALID,104,VALID,0,VALID,22.4861,VALID,96,VALID,0,
2014-05-24, 03:45:04,VALID,1009.66,VALID,0,VALID,104,VALID,0,VALID,22.4667,VALID,95,VALID,0,
2014-05-24, 03:46:04,VALID,1009.66,VALID,0,VALID,104,VALID,0.112112,VALID,22.4861,VALID,112,VALID,0,
2014-05-24, 03:47:04,VALID,1009.64,VALID,0,VALID,104,VALID,0.112112,VALID,22.5056,VALID,115,VALID,0,
2014-05-24, 03:48:04,VALID,1009.63,VALID,0,VALID,104,VALID,0,VALID,22.5251,VALID,112,VALID,0,
2014-05-24, 03:49:04,VALID,1009.62,VALID,0,VALID,104,VALID,0,VALID,22.5073,VALID,111,VALID,0,
2014-05-24, 03:50:04,VALID,1009.66,VALID,0,VALID,104,VALID,0,VALID,22.5039,VALID,109,VALID,0,
2014-05-24, 03:51:04,VALID,1009.62,VALID,0,VALID,104,VALID,0,VALID,22.5056,VALID,107,VALID,0,
2014-05-24, 03:52:04,VALID,1009.61,VALID,0,VALID,104,VALID,0.112112,VALID,22.4861,VALID,107,VALID,0,
2014-05-24, 03:53:04,VALID,1009.63,VALID,0,VALID,104,VALID,0.112112,VALID,22.4861,VALID,93,VALID,0,
2014-05-24, 03:54:04,VALID,1009.67,VALID,0,VALID,104,VALID,0.112112,VALID,22.4861,VALID,93,VALID,0,
2014-05-24, 03:55:04,VALID,1009.69,VALID,0,VALID,104,VALID,0,VALID,22.5251,VALID,93,VALID,0,
2014-05-24, 03:56:04,VALID,1009.69,VALID,0,VALID,104,VALID,0,VALID,22.4861,VALID,93,VALID,0,
2014-05-24, 03:57:04,VALID,1009.7,VALID,0,VALID,104,VALID,0,VALID,22.5251,VALID,93,VALID,0,
2014-05-24, 03:58:04,VALID,1009.69,VALID,0,VALID,104,VALID,0,VALID,22.5251,VALID,94,VALID,0,
2014-05-24, 03:59:04,VALID,1009.68,VALID,0,VALID,104,VALID,0,VALID,22.5251,VALID,94,VALID,0,
2014-05-24, 04:00:04,VALID,1009.66,VALID,0,VALID,104,VALID,0,VALID,22.5073,VALID,83,VALID,0,
2014-05-24, 04:01:04,VALID,1009.69,VALID,0,VALID,104,VALID,0.112112,VALID,22.5056,VALID,85,VALID,0,
2014-05-24, 04:02:04,VALID,1009.65,VALID,0,VALID,104,VALID,0.112112,VALID,22.5056,VALID,85,VALID,0,
2014-05-24, 04:03:04,VALID,1009.64,VALID,0,VALID,104,VALID,0,VALID,22.4861,VALID,85,VALID,0,
2014-05-24, 04:04:04,VALID,1009.61,VALID,0.5,VALID,104,VALID,0,VALID,22.5251,VALID,85,VALID,0,
2014-05-24, 04:05:04,VALID,1009.62,VALID,0,VALID,104,VALID,0.112112,VALID,22.5056,VALID,85,VALID,0,